TimeEDT,TemperatureF,Dew PointF,Humidity,Sea Level PressureIn,VisibilityMPH,Wind Direction,Wind SpeedMPH,Gust SpeedMPH,PrecipitationIn,Events,Conditions,WindDirDegrees,DateUTC
12:15 AM,53.6,33.8,47,30.07,10.0,SSW,4.6,-,N/A,,Overcast,210,2013-10-27 04:15:00
12:35 AM,53.6,33.8,47,30.07,10.0,Calm,Calm,-,N/A,,Overcast,0,2013-10-27 04:35:00
12:55 AM,53.6,33.8,47,30.07,10.0,SW,3.5,-,N/A,,Overcast,220,2013-10-27 04:55:00
1:15 AM,53.6,33.8,47,30.07,10.0,Calm,Calm,-,N/A,,Mostly Cloudy,0,2013-10-27 05:15:00
1:35 AM,53.6,33.8,47,30.07,10.0,Calm,Calm,-,N/A,,Mostly Cloudy,0,2013-10-27 05:35:00
1:55 AM,53.6,33.8,47,30.06,10.0,Calm,Calm,-,N/A,,Overcast,0,2013-10-27 05:55:00
2:15 AM,53.6,33.8,47,30.07,10.0,Calm,Calm,-,N/A,,Overcast,0,2013-10-27 06:15:00
2:35 AM,53.6,33.8,47,30.07,10.0,SW,3.5,-,N/A,,Scattered Clouds,230,2013-10-27 06:35:00
2:55 AM,51.8,35.6,54,30.06,10.0,Calm,Calm,-,N/A,,Clear,0,2013-10-27 06:55:00
3:15 AM,51.8,35.6,54,30.06,10.0,Calm,Calm,-,N/A,,Scattered Clouds,0,2013-10-27 07:15:00
3:35 AM,51.8,35.6,54,30.06,10.0,Calm,Calm,-,N/A,,Clear,0,2013-10-27 07:35:00
3:55 AM,50.0,35.6,58,30.06,10.0,Calm,Calm,-,N/A,,Clear,0,2013-10-27 07:55:00
4:15 AM,50.0,35.6,58,30.05,10.0,Calm,Calm,-,N/A,,Clear,0,2013-10-27 08:15:00
4:35 AM,50.0,35.6,58,30.05,10.0,Calm,Calm,-,N/A,,Clear,0,2013-10-27 08:35:00
4:55 AM,50.0,35.6,58,30.05,10.0,Calm,Calm,-,N/A,,Clear,0,2013-10-27 08:55:00
5:15 AM,50.0,37.4,62,30.06,10.0,Calm,Calm,-,N/A,,Mostly Cloudy,0,2013-10-27 09:15:00
5:35 AM,50.0,37.4,62,30.06,10.0,Calm,Calm,-,N/A,,Overcast,0,2013-10-27 09:35:00
5:55 AM,50.0,39.2,66,30.06,10.0,Calm,Calm,-,N/A,,Overcast,0,2013-10-27 09:55:00
6:15 AM,50.0,39.2,66,30.06,10.0,Calm,Calm,-,N/A,,Mostly Cloudy,0,2013-10-27 10:15:00
6:35 AM,48.2,39.2,71,30.07,10.0,Calm,Calm,-,N/A,,Mostly Cloudy,0,2013-10-27 10:35:00
6:55 AM,46.4,39.2,76,30.07,10.0,Calm,Calm,-,N/A,,Scattered Clouds,0,2013-10-27 10:55:00
7:15 AM,44.6,39.2,81,30.07,10.0,Calm,Calm,-,N/A,,Clear,0,2013-10-27 11:15:00
7:35 AM,42.8,37.4,81,30.08,10.0,Calm,Calm,-,N/A,,Clear,0,2013-10-27 11:35:00
7:55 AM,42.8,39.2,87,30.08,10.0,Calm,Calm,-,N/A,,Clear,0,2013-10-27 11:55:00
8:15 AM,46.4,39.2,76,30.09,10.0,Calm,Calm,-,N/A,,Clear,0,2013-10-27 12:15:00
8:35 AM,50.0,39.2,66,30.10,10.0,Calm,Calm,-,N/A,,Clear,0,2013-10-27 12:35:00
8:55 AM,51.8,39.2,62,30.11,10.0,Calm,Calm,-,N/A,,Clear,0,2013-10-27 12:55:00
9:15 AM,53.6,39.2,58,30.12,10.0,Calm,Calm,-,N/A,,Clear,0,2013-10-27 13:15:00
9:35 AM,55.4,39.2,54,30.12,10.0,NNW,4.6,-,N/A,,Clear,330,2013-10-27 13:35:00
9:55 AM,59.0,41.0,51,30.13,10.0,NW,4.6,-,N/A,,Clear,320,2013-10-27 13:55:00
10:15 AM,60.8,37.4,42,30.13,10.0,NNW,5.8,-,N/A,,Clear,330,2013-10-27 14:15:00
10:35 AM,62.6,37.4,39,30.13,10.0,NW,4.6,-,N/A,,Clear,310,2013-10-27 14:35:00
10:55 AM,62.6,37.4,39,30.13,10.0,North,3.5,-,N/A,,Scattered Clouds,360,2013-10-27 14:55:00
11:15 AM,62.6,35.6,37,30.13,10.0,NNW,4.6,-,N/A,,Scattered Clouds,340,2013-10-27 15:15:00
11:35 AM,64.4,35.6,34,30.13,10.0,North,4.6,-,N/A,,Clear,350,2013-10-27 15:35:00
11:55 AM,64.4,35.6,34,30.13,10.0,North,4.6,-,N/A,,Clear,350,2013-10-27 15:55:00
12:15 PM,66.2,35.6,32,30.13,10.0,North,3.5,-,N/A,,Clear,350,2013-10-27 16:15:00
12:35 PM,66.2,35.6,32,30.11,10.0,NNW,3.5,-,N/A,,Clear,340,2013-10-27 16:35:00
12:55 PM,68.0,35.6,30,30.10,10.0,WNW,3.5,-,N/A,,Clear,290,2013-10-27 16:55:00
1:15 PM,68.0,35.6,30,30.09,10.0,Calm,Calm,-,N/A,,Clear,0,2013-10-27 17:15:00
1:35 PM,68.0,35.6,30,30.08,10.0,Calm,Calm,-,N/A,,Clear,0,2013-10-27 17:35:00
1:55 PM,68.0,35.6,30,30.08,10.0,Calm,Calm,-,N/A,,Clear,0,2013-10-27 17:55:00
2:15 PM,68.0,35.6,30,30.07,10.0,Calm,Calm,-,N/A,,Clear,0,2013-10-27 18:15:00
2:35 PM,68.0,37.4,33,30.07,10.0,Calm,Calm,-,N/A,,Clear,0,2013-10-27 18:35:00
2:55 PM,68.0,37.4,33,30.07,10.0,WSW,4.6,-,N/A,,Clear,240,2013-10-27 18:55:00
3:15 PM,68.0,35.6,30,30.07,10.0,SSW,3.5,-,N/A,,Clear,210,2013-10-27 19:15:00
3:35 PM,68.0,37.4,33,30.06,10.0,Calm,Calm,-,N/A,,Clear,0,2013-10-27 19:35:00
3:55 PM,68.0,35.6,30,30.06,10.0,Calm,Calm,-,N/A,,Clear,0,2013-10-27 19:55:00
4:15 PM,69.8,37.4,31,30.07,10.0,Calm,Calm,-,N/A,,Clear,0,2013-10-27 20:15:00
4:35 PM,68.0,37.4,33,30.07,10.0,Calm,Calm,-,N/A,,Clear,0,2013-10-27 20:35:00
4:55 PM,68.0,37.4,33,30.07,10.0,Calm,Calm,-,N/A,,Clear,0,2013-10-27 20:55:00
5:15 PM,68.0,37.4,33,30.07,10.0,Calm,Calm,-,N/A,,Clear,0,2013-10-27 21:15:00
5:35 PM,62.6,44.6,52,30.07,10.0,Calm,Calm,-,N/A,,Clear,0,2013-10-27 21:35:00
5:55 PM,60.8,44.6,55,30.08,10.0,Calm,Calm,-,N/A,,Clear,0,2013-10-27 21:55:00
6:15 PM,57.2,46.4,67,30.08,10.0,Calm,Calm,-,N/A,,Clear,0,2013-10-27 22:15:00
6:35 PM,55.4,44.6,67,30.08,10.0,Calm,Calm,-,N/A,,Clear,0,2013-10-27 22:35:00
6:55 PM,53.6,44.6,72,30.09,10.0,Calm,Calm,-,N/A,,Clear,0,2013-10-27 22:55:00
7:15 PM,51.8,42.8,71,30.10,10.0,Calm,Calm,-,N/A,,Clear,0,2013-10-27 23:15:00
7:35 PM,51.8,42.8,71,30.10,10.0,Calm,Calm,-,N/A,,Clear,0,2013-10-27 23:35:00
7:55 PM,51.8,42.8,71,30.11,10.0,Calm,Calm,-,N/A,,Clear,0,2013-10-27 23:55:00
8:15 PM,50.0,44.6,82,30.11,10.0,Calm,Calm,-,N/A,,Clear,0,2013-10-28 00:15:00
8:35 PM,50.0,44.6,82,30.11,10.0,Calm,Calm,-,N/A,,Clear,0,2013-10-28 00:35:00
8:55 PM,50.0,44.6,82,30.11,10.0,Calm,Calm,-,N/A,,Clear,0,2013-10-28 00:55:00
9:15 PM,50.0,44.6,82,30.11,10.0,Calm,Calm,-,N/A,,Clear,0,2013-10-28 01:15:00
9:35 PM,50.0,42.8,76,30.12,10.0,Calm,Calm,-,N/A,,Clear,0,2013-10-28 01:35:00
9:55 PM,50.0,42.8,76,30.13,10.0,Calm,Calm,-,N/A,,Clear,0,2013-10-28 01:55:00
10:15 PM,50.0,44.6,82,30.14,10.0,Calm,Calm,-,N/A,,Clear,0,2013-10-28 02:15:00
10:35 PM,50.0,42.8,76,30.14,10.0,Calm,Calm,-,N/A,,Clear,0,2013-10-28 02:35:00
10:55 PM,48.2,42.8,82,30.14,10.0,Calm,Calm,-,N/A,,Clear,0,2013-10-28 02:55:00
11:15 PM,48.2,42.8,82,30.14,10.0,Calm,Calm,-,N/A,,Clear,0,2013-10-28 03:15:00
11:35 PM,46.4,42.8,87,30.14,10.0,Calm,Calm,-,N/A,,Clear,0,2013-10-28 03:35:00
11:55 PM,46.4,42.8,87,30.15,7.0,Calm,Calm,-,N/A,,Clear,0,2013-10-28 03:55:00